Regional Weather Roundup
Issued by NWS

Home | Current Version | Previous Version | Text Only | Print | Product List | Glossary Off
Versions: 1 2 3 4 5 6 7 8 9 10 11 12 13 14 15 16 17 18 19 20 21 22 23 24 25 26 27 28

000
ASUS45 KSLC 292010
RWRUT

UTAH REGIONAL WEATHER ROUNDUP
NATIONAL WEATHER SERVICE SALT LAKE CITY UT
200 PM MDT FRI JUL 29 2016

UTZ001>011-023>025-292100-

NORTHERN UTAH

CITY           SKY/WX    TMP DP  RH WIND       PRES   REMARKS
BRIGHAM CITY     N/A     94  25   8 S7        30.03F
HILL AFB       SUNNY     94  33  11 NW12      30.08F
LOGAN          SUNNY     93  34  12 VRB3      30.04F
OGDEN          SUNNY     95  32  11 N8        30.04F HX  90
PROVO AIRPORT  MOSUNNY   91  41  17 VRB6      30.05F
SALT LAKE CITY MOSUNNY   99  34  10 NW12      30.01F HX  93
VERNAL         SUNNY     92  33  12 NE7       30.10F
WENDOVER       MOSUNNY   97  37  12 SE9       30.04F HX  92
HEBER CITY     SUNNY     93  32  11 CALM      30.10F
WEST JORDAN    SUNNY     95  43  16 N10       30.06F HX  91

$$

UTZ012>022-026-027-292100-

SOUTHERN/CENTRAL UTAH

CITY           SKY/WX    TMP DP  RH WIND       PRES   REMARKS
BLANDING       PTSUNNY   93  34  12 W12G33    30.21S
BRYCE CANYON   CLOUDY    80  33  18 SW20G31   30.35R
CEDAR CITY     CLOUDY    96  35  11 W6        30.13F HX  91
DELTA          MOSUNNY   97  32  10 S3        30.06F HX  91
MILFORD        PTSUNNY   99  34  10 VRB3      30.06F HX  93
MOAB/CYNLANDS  SUNNY    102  30   8 VRB7      29.99F HX  95
PRICE          MOSUNNY   93  31  11 SW10G16   30.12F
ST GEORGE      CLEAR    100  48  17 W8        29.92F HX  97

$$

REGIONAL REPORTS     COLORADO/ARIZONA

CITY           SKY/WX    TMP DP  RH WIND       PRES   REMARKS
CRAIG, CO      SUNNY     89  27  10 VRB7      30.18F
GRAND JUNCTION SUNNY     97  32  10 VRB3      30.04F HX  91
RIFLE          SUNNY     93  33  12 S8        30.10F
MONTROSE       SUNNY     92  33  12 NW5G16    30.15F
CORTEZ         SUNNY     95  34  11 NE9       30.11F HX  90
PAGE, AZ       SUNNY    101  29   8 MISG      29.98F HX  94
GRAND CANYON   MOSUNNY   93  38  14 CALM      30.23F
KINGMAN        MOSUNNY  101  50  18 S13G21    29.97F HX  98
FLAGSTAFF      MOSUNNY   83  39  21 VRB6      30.27S

$$

REGIONAL REPORTS    NEVADA/IDAHO/WYOMING

CITY           SKY/WX    TMP DP  RH WIND       PRES   REMARKS
LAS VEGAS, NV  PTSUNNY  110  43  10 NE14      29.80F HX 104
ELY            PTSUNNY   80  44  27 SE20G35   30.21R THUNDER
ELKO           SUNNY     97  31   9 SW5       30.08F HX  91
POCATELLO, ID  SUNNY     91  39  16 VRB7      30.06F
BURLEY         SUNNY     89  48  24 VRB6      30.03F
EVANSTON, WY   MOSUNNY   89  31  12 MISG      30.25F
ROCK SPRINGS   SUNNY     88  25  10 W25       30.20F
KEMMERER         N/A     84  27  12 W22G33    30.25F

$$




USA.gov is the U.S. government's official web portal to all federal, state and local government web resources and services.